Location: Colle Santa Colomba
(42.0333°N, 12.5667°E)
Time: 03:40:10
(UTC+00:00)

NOSS 3-1 (A) - Pass Details

Date: 25 October 2021
Orbit: 721 x 1491 km, 63.4° (Epoch: 22 November)

Event Time Altitude Azimuth Distance (km) Brightness Sun altitude
Rises 17:02:33 0° 202° (SSW) 3,149 6.6 -9.8°
Reaches altitude 10° 17:04:49 10° 198° (SSW) 2,269 5.8 -10.3°
Maximum altitude 17:09:52 60° 119° (ESE) 934 3.2 -11.2°
Drops below altitude 10° 17:15:44 10° 41° (NE) 2,630 5.3 -12.3°
Enters shadow 17:17:04 - 40° (NE) 3,142 5.7 -12.5°
